Home   Weather   Schenectady   Past weeks
Flag for USA

Past Weather in Schenectady, New York, USA — Yesterday and Last 2 Weeks

Now
65 °F

Partly sunny.


Feels Like: 65 °F
Forecast: 88 / 61 °F
Wind: No wind

Location: Albany County Airport

Current Time: Jul 16, 2019 at 7:23:14 am

Latest Report: Jul 16, 2019 at 6:51 am


Visibility: 10 mi

Pressure: 30.07 "Hg

Humidity: 81%

Dew Point: 59 °F

Location of SchenectadyLocation

Past Weather in Schenectady — Graph

°F

Schenectady Temperature Yesterday

Maximum temperature yesterday: 84 °F (at 3:51 pm)
Minimum temperature yesterday: 61 °F (at 5:51 am)
Average temperature yesterday: 73 °F

High & Low Weather Summary for the Past Weeks

 TemperatureHumidityPressure
High92 °F (Jul 5, 3:51 pm)91% (Jul 3, 5:51 am)30.14 "Hg (Jul 3, 5:51 am)
Low58 °F (Jul 8, 4:51 am)29% (Jul 9, 2:51 pm)29.68 "Hg (Jul 12, 3:51 am)
Average76 °F61%29.93 "Hg
* Reported Jul 1 5:51 am — Jul 16 5:51 am, Schenectady. Weather by CustomWeather, © 2019

Note: Actual official high and low records may vary slightly from our data, if they occured in-between our weather recording intervals... More about our weather records

Advertising

Schenectady Weather History for the Previous 24 Hours

Scroll right to see more
 ConditionsComfort  
Time TempWeatherWind HumidityBarometerVisibility
5:51 am
Tue, Jul 16
62 °FBroken clouds.No wind83%30.07 "Hg10 mi
4:51 am61 °FPassing clouds.No wind87%30.06 "Hg10 mi
3:51 am62 °FClear.No wind83%30.05 "Hg10 mi
2:51 am64 °FClear.No wind81%30.05 "Hg10 mi
1:51 am65 °FPassing clouds.No wind78%30.06 "Hg10 mi
12:51 am66 °FPassing clouds.No wind73%30.06 "Hg10 mi
11:51 pm
Mon, Jul 15
68 °FPassing clouds.6 mph70%30.05 "Hg10 mi
10:51 pm70 °FPassing clouds.5 mph66%30.04 "Hg10 mi
9:51 pm73 °FPassing clouds.6 mph59%30.04 "Hg10 mi
8:51 pm74 °FPassing clouds.7 mph56%30.03 "Hg10 mi
7:51 pm79 °FPartly sunny.9 mph47%30.01 "Hg10 mi
6:51 pm82 °FPartly sunny.10 mph41%30.01 "Hg10 mi
5:51 pm83 °FPartly sunny.10 mph38%30.01 "Hg10 mi
4:51 pm84 °FPartly sunny.8 mph38%30.01 "Hg10 mi
3:51 pm84 °FBroken clouds.8 mph37%30.02 "Hg10 mi
2:51 pm83 °FScattered clouds.14 mph37%30.04 "Hg10 mi
1:51 pm81 °FScattered clouds.7 mph38%30.05 "Hg10 mi
12:51 pm79 °FScattered clouds.10 mph44%30.06 "Hg10 mi
11:51 am79 °FScattered clouds.9 mph47%30.08 "Hg10 mi
10:51 am76 °FScattered clouds.3 mph52%30.07 "Hg10 mi
9:51 am72 °FScattered clouds.5 mph64%30.08 "Hg10 mi
8:51 am69 °FScattered clouds.5 mph70%30.08 "Hg10 mi
7:51 am67 °FScattered clouds.5 mph76%30.07 "Hg10 mi
Weather by CustomWeather, © 2019

See weather overview

LIVE PARTIAL LUNAR ECLIPSE – Watch the eclipse as it happens